Regional Weather Roundup
Issued by NWS

Home | Current Version | Previous Version | Text Only | Print | Product List | Glossary On
Versions: 1 2 3 4 5 6 7 8 9 10 11 12 13 14 15 16 17 18 19 20 21 22 23 24 25 26 27 28 29 30 31 32 33 34 35 36 37 38 39 40 41 42 43 44 45 46 47 48 49 50
433
ASUS45 KABQ 251210
RWRNM
NEW MEXICO REGIONAL WEATHER ROUNDUP
NATIONAL WEATHER SERVICE ALBUQUERQUE NM
500 AM MST SAT FEB 25 2017

NOTE: "FAIR" MEANS FEW OR NO CLOUDS BELOW 12,000 FEET AGL WITH NO
       SIGNIFICANT WEATHER OR OBSTRUCTIONS TO VISION.

      THIS PRODUCT IS RELEASED AS TWO VERSIONS.  ONE VERSION NEAR
      THE TOP OF THE HOUR CONTAINING PRELIMINARY DATA FROM ALBUQUERQUE
      AND OTHER STATIONS.  A FINAL VERSION WITH ADDITIONAL DATA IS
      ISSUED ABOUT 10 MINUTES AFTER THE HOUR.

NMZ501-503-504-510>518-251300-
NORTHWEST PLATEAU/NORTHCENTRAL MOUNTAINS

CITY           SKY/WX    TMP DP  RH WIND       PRES   REMARKS
FARMINGTON     FAIR      16  11  80 NE5       30.07S WCI   9
6HR MIN TEMP:  14; 6HR MAX TEMP:  25;

LOS ALAMOS     FAIR      22  -2  35 SW3       30.03S
SANTA FE       FAIR      17   0  47 CALM      30.04R
6HR MIN TEMP:  14; 6HR MAX TEMP:  23;

TAOS           FAIR      16  -2  45 CALM      30.02S
ANGEL FIRE     FAIR       7   3  85 CALM      29.97S

$$
NMZ402-403-502-505>509-251300-
WESTCENTRAL MOUNTAINS/SOUTHWEST MOUNTAINS

CITY           SKY/WX    TMP DP  RH WIND       PRES   REMARKS
GALLUP         FAIR      13   5  70 E3        30.07S
6HR MIN TEMP:  12; 6HR MAX TEMP:  20;

GRANTS         FAIR       8   1  75 CALM      30.09R
SILVER CITY    FAIR      24  13  63 N10       30.08F WCI  13

$$
NMZ407-409-411-412-251300-
SOUTHERN DESERTS

CITY           SKY/WX    TMP DP  RH WIND       PRES   REMARKS
DEMING         FAIR      30  14  51 SW7       30.09R WCI  23
6HR MIN TEMP:  29; 6HR MAX TEMP:  39;

LAS CRUCES     FAIR      36   7  30 SW7       30.08S WCI  30
HOLLOMAN AFB   FAIR      30  10  43 CALM      30.10R
ALAMOGORDO     FAIR      30   7  37 SE3       30.07S
T OR C         FAIR      34  12  40 NW6       30.06R WCI  29
6HR MIN TEMP:  31; 6HR MAX TEMP:  44;


$$
NMZ519>523-251300-
CENTRAL VALLEYS/CENTRAL HIGHLANDS

CITY           SKY/WX    TMP DP  RH WIND       PRES   REMARKS
ALBUQUERQUE    FAIR      24   2  38 CALM      30.08R
6HR MIN TEMP:  24; 6HR MAX TEMP:  34;

DOUBLE EAGLE   FAIR      16   3  57 NW5       30.07S WCI   9
MORIARTY ARPT  FAIR       6   0  75 CALM      30.07R
6HR MIN TEMP:   6; 6HR MAX TEMP:  23;

CLINES CORNERS FAIR      17  -1  45 W13       30.03R WCI   4
6HR MIN TEMP:  14; 6HR MAX TEMP:  23;

BELEN          FAIR      23   2  39 NW5       30.09R WCI  17
6HR MIN TEMP:  22; 6HR MAX TEMP:  32;

SOCORRO        FAIR      30   3  31 N7        30.08S WCI  23
6HR MIN TEMP:  30; 6HR MAX TEMP:  38;


$$
NMZ524>526-539-540-251300-
SOUTHCENTRAL MOUNTAINS

CITY           SKY/WX    TMP DP  RH WIND       PRES   REMARKS
RUIDOSO        FAIR      27   0  31 CALM      30.07S

$$
NMZ527>531-251300-
NORTHEAST HIGHLANDS/NORTHEAST PLAINS

CITY           SKY/WX    TMP DP  RH WIND       PRES   REMARKS
LAS VEGAS      FAIR      12   7  80 CALM      30.01S
6HR MIN TEMP:   9; 6HR MAX TEMP:  17;

RATON          FAIR      12   6  77 W5        30.01F WCI   4
6HR MIN TEMP:  11; 6HR MAX TEMP:  17;

CLAYTON        FAIR      13  10  88 W7        30.07R WCI   3
6HR MIN TEMP:  13; 6HR MAX TEMP:  20;


$$
NMZ532>537-251300-
EASTCENTRAL PLAINS

CITY           SKY/WX    TMP DP  RH WIND       PRES   REMARKS
TUCUMCARI      FAIR      16  10  77 N7        30.11R WCI   6
6HR MIN TEMP:  16; 6HR MAX TEMP:  26;

CANNON AFB     FAIR      21  17  84 NE6       30.11R WCI  13
6HR MIN TEMP:  21; 6HR MAX TEMP:  28;

CLOVIS AIRPORT FAIR      19  10  68 CALM      30.11R

$$
NMZ028-029-538-251300-
SOUTHEAST PLAINS

CITY           SKY/WX    TMP DP  RH WIND       PRES   REMARKS
ROSWELL        FAIR      24   8  50 W6          N/A  WCI  17
6HR MIN TEMP:  24; 6HR MAX TEMP:  45;

ARTESIA        FAIR      32  16  51 SE8       30.14R WCI  25
CARLSBAD       FAIR      34  19  54 E8        30.12R WCI  27
6HR MIN TEMP:  34; 6HR MAX TEMP:  52;

HOBBS          FAIR      28  16  59 NE7       30.14R WCI  21


$$




USA.gov is the U.S. government's official web portal to all federal, state and local government web resources and services.